Theta_e
314 314 313 313 313 313 313 313 312 312 312 313 312 311 310 310 310 309 310 311 311 312 313 313 313 313 314 315 316 317 318 318 319 319 320 320 321 322 322 324 326 327 329 329 329 329 329 329 329 329 329 328 328 328 329 329 329 329 329 330 329 329 329 328 328 328 328 328 329 329 329 330 329 329 330 329 330 330 329 330 327 323 320 315 313
312 312 312 311 311 311 311 311 311 311 311 311 311 310 310 309 309 308 308 309 309 309 310 310 310 311 311 312 313 314 314 314 314 315 316 317 319 320 320 321 322 323 326 328 329 329 329 329 330 330 330 329 328 329 329 330 329 329 329 330 330 330 329 328 327 327 328 328 328 328 329 330 329 329 329 329 329 330 328 328 327 323 317 311 311
310 311 311 310 310 310 309 310 310 310 310 309 309 309 309 309 309 308 308 307 307 307 307 308 308 308 308 309 310 310 310 310 310 311 312 313 314 316 317 318 319 321 323 324 327 329 329 329 329 329 330 330 330 329 330 330 329 329 329 330 330 330 329 328 327 327 328 327 327 328 328 329 329 329 329 329 329 329 327 326 325 322 315 310 310
309 309 309 309 309 308 308 308 308 308 308 308 308 308 309 309 309 308 307 307 306 306 306 306 306 306 306 306 308 308 307 307 308 309 309 309 309 311 313 314 316 318 320 322 324 326 328 329 329 329 329 329 330 330 329 330 329 329 329 330 329 329 329 329 328 327 327 327 327 328 328 328 328 327 326 326 326 326 325 323 322 319 314 311 312
308 308 308 308 308 308 308 308 307 307 307 307 307 307 307 308 308 308 307 307 306 305 305 305 305 305 304 304 305 306 306 305 304 305 305 305 306 307 308 310 312 314 316 318 321 324 326 328 329 329 329 329 329 329 329 328 329 329 330 330 330 329 329 329 329 328 327 326 326 327 328 327 326 325 323 321 321 321 320 319 319 317 314 314 316
308 308 308 308 308 308 307 308 307 307 306 306 306 306 307 307 307 307 307 307 306 304 304 304 304 304 304 303 303 304 304 302 301 300 302 303 305 306 306 307 309 311 313 314 317 319 322 325 327 328 328 329 329 328 328 328 328 329 330 330 331 330 329 329 329 329 327 326 326 327 327 326 326 325 322 320 319 318 317 317 317 317 317 317 319
307 307 307 307 307 307 307 307 307 307 306 305 305 305 306 306 306 305 306 306 305 304 303 303 303 303 302 302 302 302 303 301 299 299 301 302 303 305 307 308 309 310 311 312 313 315 318 321 325 326 327 328 328 328 328 328 328 328 329 329 330 330 329 329 328 328 327 326 326 326 327 326 326 325 322 318 318 317 316 316 315 316 317 317 319
307 307 307 306 306 306 306 306 306 306 306 305 304 304 305 304 304 304 304 305 305 303 302 301 301 301 301 301 301 301 301 299 298 299 300 300 302 305 308 309 310 311 311 312 312 313 314 317 321 324 326 327 328 328 328 328 328 328 328 328 328 329 330 328 328 328 327 327 326 326 326 326 326 326 322 317 315 315 315 316 315 315 316 316 317
306 306 306 306 306 306 306 306 306 306 306 305 304 304 304 303 302 303 303 303 303 302 301 301 300 301 301 300 300 300 299 299 298 297 298 299 301 306 309 309 309 309 310 311 311 311 312 313 316 321 324 326 328 328 328 328 328 327 327 328 328 330 330 328 327 327 327 326 326 326 326 325 326 326 322 317 316 316 316 316 316 315 315 315 316
305 305 305 305 305 305 305 305 305 304 305 305 304 304 304 303 302 302 302 302 301 301 300 300 300 300 300 300 300 300 299 298 298 298 298 299 302 307 310 309 308 308 308 309 310 310 310 311 313 317 321 324 326 327 328 328 328 328 327 327 328 330 330 328 326 327 326 326 325 325 325 325 325 326 324 319 317 318 316 315 316 316 314 313 313
304 304 304 304 304 304 304 303 303 303 303 304 303 303 304 303 302 302 301 301 300 299 299 299 299 299 299 299 299 299 298 298 298 299 301 302 304 307 307 307 307 307 307 307 308 309 310 310 312 314 318 322 324 326 327 327 327 327 327 327 328 329 329 328 326 326 326 326 325 325 325 325 325 326 326 322 318 317 317 316 316 317 315 313 312
303 303 303 303 303 302 302 301 301 302 302 302 302 302 302 303 302 302 301 301 300 299 299 298 298 298 298 298 298 298 298 298 298 300 302 303 304 306 305 305 305 305 305 306 306 307 309 311 312 314 316 319 322 325 326 327 327 327 327 327 327 328 329 329 327 326 326 326 325 325 325 325 325 325 326 324 320 318 317 317 316 316 315 314 313
302 302 302 302 302 301 300 300 300 301 301 300 300 301 301 301 301 301 301 301 300 299 298 298 297 297 297 297 297 297 297 297 298 300 301 302 303 304 305 304 303 303 303 303 304 305 306 308 310 313 316 318 320 323 325 326 327 327 327 327 327 327 328 328 328 327 327 327 326 325 325 325 325 325 325 326 323 320 318 316 315 316 315 314 314
302 302 302 301 301 300 299 299 299 300 300 299 300 300 300 300 300 301 301 301 300 299 298 297 297 297 297 296 296 296 296 297 298 300 300 301 302 302 303 303 302 302 302 302 302 302 303 304 305 308 312 315 318 321 323 325 326 327 327 327 327 327 327 327 328 328 328 327 326 326 325 325 325 325 325 326 324 322 320 318 316 316 316 315 314
302 302 301 301 301 300 299 299 299 299 299 299 299 299 299 299 300 300 300 300 300 300 298 297 297 297 296 296 296 296 296 296 298 299 300 301 301 301 301 302 303 302 302 301 301 301 301 301 302 303 305 309 315 319 321 323 325 327 326 326 326 326 326 327 328 328 328 328 326 326 326 325 326 325 325 325 325 324 322 320 318 316 315 315 314
301 301 301 301 300 299 298 298 299 299 298 298 299 298 298 299 299 299 299 299 299 299 298 297 297 297 296 296 296 296 296 296 297 298 299 300 300 300 300 301 302 303 301 300 300 300 300 300 301 301 301 304 309 314 317 320 322 325 327 326 325 325 325 326 327 327 327 328 327 326 326 326 326 326 326 325 325 324 322 320 317 315 314 314 314
301 301 301 300 300 299 298 298 298 298 298 298 298 298 298 298 298 298 298 298 298 298 298 297 297 297 296 296 296 296 295 295 296 297 298 298 299 300 299 299 301 302 301 299 299 299 300 300 300 300 300 301 305 310 314 317 318 321 325 326 325 324 324 324 325 326 327 327 326 326 326 325 326 326 326 325 324 323 322 319 316 314 313 314 313
301 301 300 300 300 299 298 298 298 298 298 298 298 298 298 298 297 297 297 297 297 297 297 297 297 297 296 296 296 295 295 295 295 296 297 297 298 298 297 297 299 300 299 299 299 299 300 300 300 299 299 301 305 310 313 315 316 319 323 325 324 322 322 323 323 323 325 325 325 325 325 325 325 325 325 325 324 324 322 319 316 314 314 314 313
301 301 301 300 300 300 299 298 297 298 298 298 298 298 297 297 297 297 297 297 296 296 296 297 297 297 296 296 296 295 295 295 295 296 296 297 297 298 297 296 296 297 297 298 298 298 299 300 300 299 299 302 309 314 315 315 317 319 322 323 322 321 321 322 322 322 322 323 323 324 324 324 324 324 324 324 324 324 323 321 317 315 314 313 313
301 301 301 300 300 300 299 298 297 297 297 297 297 297 296 296 296 295 295 295 296 296 296 296 296 296 296 296 296 295 295 295 295 295 296 296 297 297 297 295 295 296 296 296 297 297 297 299 300 300 300 303 309 314 316 317 318 319 321 322 321 320 320 319 319 320 321 321 321 322 322 322 322 323 323 323 323 323 322 322 320 316 315 314 313
301 301 301 301 300 300 300 299 298 297 297 297 296 296 296 295 295 295 295 295 295 296 295 295 296 296 296 296 296 296 295 295 295 295 295 296 296 297 297 296 295 295 295 295 296 296 296 297 299 300 301 303 307 311 314 316 317 318 319 320 320 320 319 317 317 318 319 318 317 317 318 318 318 319 320 320 321 321 321 321 320 318 315 314 313
302 302 302 301 300 300 300 299 298 298 298 297 297 296 296 295 295 295 295 295 295 295 295 295 295 295 296 296 296 296 296 295 295 296 295 295 295 296 297 297 296 295 295 295 295 295 295 296 297 299 301 302 304 308 311 312 312 313 315 316 316 314 314 313 314 314 314 313 313 313 314 314 315 316 317 318 318 319 319 319 319 318 317 315 314
302 302 302 301 300 300 299 299 299 298 298 298 297 297 296 296 295 295 295 295 295 295 295 295 295 295 295 296 296 296 296 296 295 296 295 295 295 295 296 297 297 296 295 294 294 294 295 295 297 300 301 301 302 305 307 308 308 308 309 311 311 311 310 310 310 310 309 309 309 310 310 311 312 313 314 315 316 317 318 317 317 318 317 315 314
302 301 301 301 300 300 299 299 299 299 299 298 298 298 297 296 296 296 295 295 295 295 295 295 295 295 295 295 296 296 296 296 296 296 295 295 295 295 295 296 297 297 296 295 294 294 295 296 297 300 301 301 301 302 304 306 306 306 307 308 308 309 310 309 309 309 308 306 306 306 306 307 309 310 311 312 313 314 315 315 315 315 315 314 314
301 301 301 301 301 300 300 299 299 299 299 299 298 298 298 297 297 296 296 296 295 295 295 295 295 295 295 295 295 296 296 296 296 296 295 295 294 295 295 296 296 296 296 296 296 296 296 297 298 299 300 300 301 301 301 302 304 306 306 306 306 306 307 307 307 307 306 304 304 304 303 304 306 307 308 310 311 312 313 313 312 312 313 313 313
301 301 302 301 301 300 300 300 300 299 299 299 299 298 298 298 298 297 297 296 296 295 295 295 294 295 295 295 296 296 295 295 296 295 295 294 294 294 295 295 296 296 296 296 297 297 298 298 298 298 297 298 299 299 298 299 302 303 304 305 304 304 304 304 305 304 304 303 303 303 302 303 303 304 306 308 308 308 309 310 310 309 310 311 311
301 301 301 301 301 301 300 300 300 299 299 299 299 299 298 298 298 298 297 297 296 296 295 295 295 295 295 295 296 296 295 295 295 295 295 294 294 293 294 294 295 295 294 294 295 295 297 298 298 298 297 297 297 298 297 298 299 300 301 302 302 302 303 303 303 303 303 303 303 303 302 303 303 303 304 305 304 304 305 306 306 305 306 308 307
299 299 300 300 301 301 301 300 300 300 300 299 299 299 299 298 298 298 298 297 296 296 296 295 295 295 295 295 295 295 295 295 295 295 295 294 294 293 293 294 294 293 293 293 293 294 296 297 298 298 297 297 297 297 296 296 296 297 298 299 300 301 302 302 302 302 302 302 303 303 302 302 302 302 302 302 302 302 302 303 303 302 303 304 303
298 298 298 298 299 300 300 300 300 300 299 299 299 299 299 299 299 299 299 298 297 296 296 295 295 295 295 295 295 295 295 295 295 295 294 294 294 293 293 293 293 293 293 293 294 294 294 294 294 294 294 294 294 294 294 294 295 295 296 297 298 299 300 300 300 301 302 302 302 302 302 302 301 301 301 301 301 301 301 301 301 301 301 301 300
298 297 297 297 298 298 298 299 299 299 299 298 298 298 299 299 298 298 299 299 298 297 296 295 295 296 296 295 295 295 295 295 295 294 294 294 294 293 293 293 293 293 293 293 293 293 292 292 292 291 291 291 291 292 292 292 293 294 295 296 297 297 298 298 299 300 301 301 302 302 302 302 301 301 301 301 300 300 301 301 301 301 300 299 298
298 298 297 297 297 297 297 297 297 297 297 297 297 297 298 298 298 298 298 298 298 297 295 295 295 296 296 295 295 295 296 296 295 294 294 294 293 293 293 293 292 292 293 293 292 291 291 291 291 291 291 291 291 291 291 292 292 293 293 294 295 296 297 297 298 299 300 300 300 301 301 301 301 301 301 300 300 300 300 300 301 300 300 299 298
299 298 298 297 298 297 297 297 297 297 297 297 297 297 297 297 297 297 298 297 297 296 295 295 295 296 296 295 295 295 295 295 295 294 294 294 293 293 293 293 292 292 292 292 291 291 291 291 291 291 291 291 291 291 291 291 291 292 292 293 294 295 296 297 297 298 299 298 299 299 300 301 301 301 300 300 299 299 299 299 299 299 299 299 298
299 299 298 298 297 297 297 297 297 297 297 297 297 297 297 297 297 297 297 297 297 296 296 295 295 295 296 296 295 294 294 295 294 294 294 294 293 293 293 293 292 292 292 292 291 290 291 291 291 291 291 291 291 291 291 291 292 292 292 292 293 294 295 296 296 297 297 297 297 298 298 300 301 301 300 300 299 299 299 299 298 298 298 298 298
298 299 299 298 298 297 297 297 297 297 297 297 297 297 297 296 297 297 297 297 297 297 296 295 295 295 296 296 295 294 294 294 294 294 294 294 293 293 293 293 292 292 292 291 291 290 291 291 291 291 291 291 291 291 291 292 292 292 292 292 292 293 294 295 295 295 296 296 296 296 297 297 299 300 300 299 299 299 299 298 298 298 298 298 298
298 298 299 298 298 298 297 297 297 297 297 297 297 297 297 297 296 296 297 297 297 297 297 296 295 295 296 295 295 294 294 294 293 293 294 294 293 293 293 293 293 293 292 292 291 291 291 291 291 291 291 291 291 291 291 292 292 292 292 292 292 293 293 293 294 294 294 295 295 296 296 296 297 298 298 298 298 298 297 297 297 298 298 298 298
298 299 298 298 298 298 298 297 297 297 297 297 297 296 297 297 296 296 296 297 297 297 297 296 296 295 296 295 295 295 294 294 293 293 294 294 293 293 293 293 293 293 293 292 292 291 291 291 291 291 291 291 291 291 291 291 292 292 292 292 292 292 292 293 293 293 293 294 294 295 295 295 296 296 297 297 297 297 297 297 297 297 297 298 297
298 298 298 298 298 298 298 297 297 297 297 297 297 296 297 296 296 296 296 297 297 297 297 296 296 296 296 295 295 295 294 294 293 293 293 294 293 293 294 294 293 293 293 293 292 292 291 291 291 291 291 291 291 291 291 291 291 291 292 292 292 292 293 293 293 293 293 293 293 294 294 294 294 295 295 296 296 297 297 297 296 297 297 297 297
297 297 297 297 297 297 298 297 297 297 297 296 297 297 297 296 296 296 296 297 297 297 297 297 296 296 296 295 295 294 294 294 294 293 293 294 294 294 294 294 293 293 293 293 292 292 292 292 292 292 291 291 291 291 291 292 291 291 291 292 292 292 292 293 293 293 293 293 293 293 294 294 294 294 294 295 295 296 296 296 296 296 296 296 296
298 297 297 297 297 297 298 297 297 297 297 297 297 297 296 296 296 296 296 297 297 297 297 297 296 296 296 295 295 294 294 294 294 293 293 293 294 294 293 294 293 293 293 292 292 292 292 292 292 292 292 292 292 291 291 291 291 292 292 292 291 291 292 292 292 292 292 293 293 292 293 293 293 293 294 294 295 295 296 296 296 296 296 296 296
297 297 297 297 297 297 297 296 297 297 296 296 296 296 296 296 296 296 296 297 297 297 297 296 296 296 296 295 295 294 294 294 294 294 293 293 293 293 293 293 293 293 293 293 293 292 292 292 292 292 292 292 292 292 291 291 291 291 291 291 291 291 291 292 292 292 292 292 292 292 293 293 293 293 293 293 294 295 295 296 296 296 296 296 296
297 297 297 297 297 297 296 296 297 296 296 296 296 296 296 297 296 296 296 297 297 297 297 297 296 296 296 295 295 294 294 294 294 294 294 293 293 293 293 293 294 293 292 293 293 293 292 293 293 292 292 292 292 292 291 291 291 291 291 291 291 291 291 291 292 292 292 291 292 292 292 292 293 293 293 293 293 294 294 295 295 295 295 295 295
297 297 297 297 297 297 296 296 296 296 295 295 295 295 296 296 296 296 296 297 297 297 297 297 297 296 296 296 295 295 294 294 294 294 294 294 293 293 293 293 293 292 292 293 293 292 292 292 292 292 292 292 292 292 292 292 291 291 291 291 291 291 291 291 291 292 292 292 291 292 292 292 292 292 292 292 293 293 293 294 294 295 295 295 295
297 297 296 297 296 296 296 296 295 296 295 295 295 295 295 296 296 296 296 296 297 297 297 296 297 297 296 296 296 295 295 295 294 294 294 294 293 293 293 293 293 292 292 292 292 292 292 292 292 292 292 292 292 292 292 292 292 291 291 292 292 291 291 291 291 292 292 292 292 292 291 291 292 292 292 292 292 293 293 293 293 294 295 295 295
297 296 296 296 296 296 296 296 296 296 295 295 295 295 295 295 296 296 296 296 296 296 297 297 296 296 296 296 296 295 295 295 294 294 294 294 294 293 293 293 293 293 292 292 292 292 292 292 292 292 292 292 292 292 291 291 291 291 291 291 291 291 291 291 291 291 291 291 292 292 292 291 291 292 292 292 292 292 292 292 293 293 294 295 295
297 296 296 296 296 296 296 296 296 296 295 295 295 295 295 296 296 296 296 296 296 296 297 296 296 296 296 296 296 296 295 295 295 294 294 294 294 293 293 293 293 293 293 293 293 292 292 292 292 291 291 291 291 292 291 291 291 291 291 291 291 290 291 291 291 291 291 291 291 292 292 292 291 291 291 291 291 291 291 291 292 292 292 293 294
297 296 296 296 296 296 296 296 296 296 295 295 295 295 295 295 295 296 296 296 296 296 297 296 296 296 296 296 296 296 296 295 295 295 294 294 294 293 293 293 293 293 293 293 293 292 292 291 291 290 290 290 290 291 291 291 291 291 291 291 291 290 290 290 291 291 291 291 291 291 292 292 291 291 291 291 291 291 291 291 291 291 291 291 292
297 297 296 296 295 296 296 296 295 295 295 295 295 295 295 295 295 295 295 295 296 296 296 296 296 296 296 296 296 296 296 296 295 295 294 294 294 294 293 293 292 293 293 293 293 292 291 290 290 290 290 289 290 290 290 290 290 290 290 290 290 291 290 290 290 291 291 291 291 291 291 291 291 291 291 291 291 291 291 291 291 290 290 290 291
297 297 297 296 296 296 296 296 295 295 295 295 295 295 295 295 295 295 295 295 295 295 295 296 296 296 296 296 296 296 296 295 295 295 295 294 294 294 293 293 292 292 293 293 292 292 291 291 290 290 290 290 290 290 290 290 289 289 289 289 289 289 289 289 290 290 291 291 291 291 291 291 291 291 291 291 291 291 291 291 291 291 291 290 291
297 297 297 296 296 296 296 296 295 295 296 295 295 295 295 295 295 295 295 294 295 295 295 295 295 295 295 295 295 296 296 295 295 295 295 294 294 294 293 293 293 292 292 292 292 291 291 291 291 291 290 290 290 290 290 290 289 289 288 287 287 287 288 289 289 290 291 291 291 291 291 291 291 290 290 290 291 291 291 290 290 291 291 291 290
297 297 297 296 296 296 296 296 296 295 296 295 295 295 295 295 295 294 294 294 295 295 295 295 295 294 294 293 294 295 295 295 295 295 295 294 294 294 294 293 293 293 292 292 292 291 291 291 291 291 291 291 290 290 290 290 289 289 288 287 287 287 288 289 289 289 290 291 291 291 291 290 290 290 290 290 290 290 290 290 290 290 290 290 290
297 297 297 297 296 296 296 296 296 296 296 296 295 295 295 295 295 294 294 294 294 294 294 294 294 293 293 293 293 295 295 295 295 295 295 294 294 294 294 294 294 293 293 293 293 292 291 291 291 291 291 291 291 291 290 290 290 289 288 288 287 287 288 288 289 289 289 290 290 290 290 290 290 290 290 290 290 290 290 289 289 289 290 290 290
Wind_Speed
20 20 21 22 23 22 22 22 22 22 22 21 21 21 21 20 20 19 18 17 17 17 16 17 17 17 17 17 18 17 17 18 19 19 18 18 17 17 18 18 18 19 19 20 20 20 21 21 22 23 24 25 27 29 31 30 29 28 28 29 31 30 28 23 14 12 16 20 21 24 27 30 34 37 39 39 39 39 38 38 36 34 36 36 36
22 23 23 23 24 23 23 22 22 22 22 22 22 21 21 20 21 21 21 20 20 19 18 18 18 18 17 17 17 16 17 20 21 21 21 21 20 19 19 19 19 19 18 20 21 21 22 23 24 24 24 25 27 28 31 30 28 28 29 28 30 30 29 26 21 15 15 17 18 21 26 31 34 37 39 40 41 41 41 40 39 37 37 37 37
23 23 24 24 24 24 24 23 23 23 22 21 20 20 20 19 20 21 22 22 22 21 20 19 19 19 18 18 18 17 20 23 23 24 24 24 24 23 22 21 21 20 19 19 21 22 23 23 25 25 24 25 27 28 30 31 29 28 29 29 29 30 29 29 26 20 17 16 16 21 27 31 35 37 40 42 42 42 43 42 41 40 38 37 37
23 23 23 24 24 24 24 23 23 23 22 21 20 19 19 19 19 20 21 23 23 23 22 19 19 20 20 20 19 18 22 26 25 25 25 26 26 25 24 23 22 21 20 20 20 21 23 24 25 26 25 26 27 28 29 30 29 28 29 30 30 30 30 30 30 27 21 15 15 21 27 31 33 35 36 38 40 41 42 41 41 40 40 38 38
23 23 23 23 23 23 22 22 22 23 22 22 22 20 20 20 20 20 21 22 23 24 24 21 19 20 20 20 20 18 21 27 28 29 29 28 27 26 25 24 23 22 22 21 20 20 21 23 25 25 26 26 28 29 29 29 29 29 30 30 31 31 30 30 31 30 25 18 16 20 25 27 28 29 31 33 32 33 34 35 38 39 39 38 38
23 23 22 22 22 21 21 21 21 22 23 24 24 22 21 21 21 21 20 21 23 25 25 22 20 19 19 20 19 18 20 25 30 33 34 32 30 29 27 26 25 23 23 22 22 21 20 21 24 25 26 27 28 29 30 29 29 29 30 31 31 30 30 30 30 30 27 23 20 20 23 25 24 25 30 33 31 31 31 30 32 34 34 34 36
23 22 22 22 22 21 21 21 20 21 22 25 25 24 23 22 21 21 21 20 22 25 26 23 21 19 19 19 19 18 19 23 30 36 37 35 33 31 29 28 27 26 25 24 24 24 22 21 22 25 27 28 30 31 30 29 29 30 31 31 29 28 30 31 30 29 27 26 23 22 23 26 26 25 28 31 31 30 30 27 26 28 30 34 36
22 21 21 22 22 21 21 21 21 21 21 23 25 24 24 24 23 23 23 21 21 23 24 23 21 19 18 18 18 18 19 24 31 37 38 37 34 32 30 29 28 27 27 26 26 26 25 23 23 24 26 27 30 32 32 31 29 29 31 30 28 29 30 29 28 27 26 25 24 24 24 25 26 24 23 25 26 24 27 29 28 30 33 34 36
22 22 21 21 21 21 21 20 21 21 20 22 24 24 23 25 25 25 25 23 21 21 22 23 23 20 18 19 19 18 20 27 33 36 36 36 35 31 29 28 27 27 27 27 26 26 26 25 24 25 26 27 29 31 33 33 31 30 31 30 28 30 30 28 26 25 24 23 22 23 23 23 26 25 22 27 31 30 32 32 29 30 32 31 32
22 22 22 21 22 22 22 21 21 21 21 21 22 22 22 23 26 26 26 25 23 22 23 25 25 23 21 20 19 20 24 31 36 36 36 36 34 29 26 26 27 28 28 28 28 27 26 25 24 24 25 26 28 29 31 34 34 34 34 32 29 29 29 28 27 26 24 21 21 23 21 21 27 29 26 30 36 35 34 33 28 26 27 25 26
22 21 22 22 23 23 23 22 22 22 22 21 21 21 20 21 23 25 26 26 26 25 26 27 27 26 24 22 21 22 27 34 38 38 39 38 34 29 25 25 27 28 28 29 29 28 28 27 25 24 24 25 27 28 29 31 33 35 36 35 33 32 29 26 26 28 26 22 22 24 23 21 27 32 30 31 35 33 34 37 33 27 26 22 18
22 23 23 24 24 24 23 22 23 23 23 23 23 23 22 20 21 23 24 25 26 27 27 28 27 27 26 25 24 24 27 34 38 38 38 38 36 33 28 24 25 26 26 26 27 27 27 27 26 24 24 25 27 28 29 31 32 34 36 37 37 37 34 30 27 28 28 25 24 25 26 25 27 32 33 32 33 33 35 37 35 30 29 27 23
22 24 25 25 25 24 23 23 24 24 24 24 24 24 24 23 22 22 21 22 24 26 27 27 27 28 28 28 27 26 29 35 38 37 37 37 36 35 31 26 24 25 27 25 25 25 25 25 25 25 25 25 26 27 30 32 32 33 35 36 37 38 38 37 33 31 32 31 28 27 30 31 30 34 38 37 35 34 33 33 34 32 31 32 31
23 24 25 25 24 24 25 25 25 25 25 25 24 24 24 24 23 21 20 20 22 25 27 27 27 28 29 29 29 29 31 36 38 37 37 37 35 33 32 30 27 27 28 26 25 25 26 25 25 26 27 26 25 25 28 31 32 33 33 34 35 37 38 39 37 36 36 36 34 33 34 36 35 37 41 41 40 38 36 36 38 37 33 29 27
23 24 25 25 24 25 26 26 27 26 26 26 26 25 24 23 22 21 20 20 21 22 25 26 27 29 30 30 31 31 33 36 38 37 37 37 36 33 32 33 31 30 30 29 27 28 28 27 26 27 29 29 28 26 26 28 30 31 32 32 32 34 36 38 39 39 39 38 37 36 37 38 40 39 39 40 41 41 42 42 41 38 31 24 20
24 24 24 24 24 25 27 27 27 27 27 27 27 26 25 24 23 21 21 21 20 21 23 25 26 28 30 31 32 33 34 36 37 37 37 37 37 35 33 32 33 33 33 31 30 30 30 29 29 30 30 32 33 30 28 27 28 31 32 31 31 31 33 35 37 38 39 39 37 37 37 38 39 39 37 38 39 39 36 33 31 30 26 20 19
23 23 24 23 23 25 27 27 27 27 27 27 27 26 26 25 24 23 22 22 22 22 23 24 25 27 29 31 32 32 34 36 36 36 37 37 37 36 34 32 33 34 34 33 31 31 31 30 30 33 34 35 36 34 31 29 27 29 32 31 30 29 30 32 33 35 36 36 36 36 36 35 36 36 36 37 38 37 32 28 28 30 26 17 14
22 23 23 23 23 24 26 27 26 26 26 26 26 25 25 24 24 24 24 23 24 24 24 25 25 27 28 29 30 32 33 36 37 36 36 37 37 36 34 33 33 33 34 34 32 32 34 35 34 36 39 37 35 31 29 30 28 27 29 30 27 25 26 28 29 30 31 32 33 32 32 31 30 30 31 33 36 39 37 33 32 34 29 20 16
21 22 22 21 21 22 24 25 24 24 24 24 24 23 24 23 23 24 24 24 25 26 26 27 27 27 28 28 30 32 33 35 37 37 36 36 36 36 34 33 33 32 32 34 35 35 37 38 40 41 41 36 30 23 19 24 27 26 26 26 23 22 25 26 26 27 27 27 27 26 26 26 26 26 27 29 34 39 41 38 35 36 32 25 23
19 19 19 20 20 20 21 23 23 24 23 23 23 22 23 23 24 25 25 25 26 27 28 29 28 28 29 30 31 32 33 36 39 39 37 35 35 35 34 33 32 31 30 32 35 37 38 40 42 44 42 37 28 16 9 14 21 24 25 25 24 23 23 21 22 25 26 24 22 22 22 23 24 25 25 27 31 35 38 37 38 39 36 30 29
17 17 17 18 18 18 18 20 22 23 23 22 23 22 23 23 24 25 26 26 27 28 29 29 29 29 30 30 31 32 33 35 38 40 39 37 35 33 33 33 31 28 28 30 33 35 37 39 41 43 41 38 32 21 12 5 9 14 17 19 20 22 22 20 20 22 24 23 22 21 21 22 22 23 23 25 27 29 32 34 34 37 37 35 35
15 14 15 17 17 17 17 17 19 20 21 22 22 22 22 23 24 25 26 27 27 28 28 29 29 30 30 31 31 32 34 35 37 40 41 39 37 33 31 31 30 26 26 29 31 33 34 36 37 39 39 38 36 31 24 18 13 7 4 7 9 13 17 20 22 23 24 25 24 23 21 20 20 20 20 21 20 21 25 28 28 30 33 36 38
13 13 14 15 16 16 16 16 17 18 19 20 21 21 21 22 23 25 25 27 27 27 28 28 28 29 30 31 32 32 33 35 36 38 40 40 39 36 31 29 28 26 26 28 29 31 33 34 35 36 36 36 36 34 31 27 24 22 17 14 13 15 16 19 23 25 24 24 25 24 21 19 19 18 17 18 18 18 19 23 24 26 28 30 33
12 12 13 14 15 16 16 16 16 17 18 19 19 20 20 20 22 23 24 25 26 26 27 28 28 28 29 30 31 32 33 34 35 36 39 39 39 37 34 30 27 25 25 26 28 30 31 32 33 33 34 35 36 35 33 30 27 24 22 20 18 18 19 20 23 25 25 24 25 23 21 20 21 20 19 18 19 18 19 20 21 23 25 26 27
11 9 10 11 13 14 14 15 15 15 16 17 18 18 18 19 20 21 22 23 24 25 26 26 27 27 28 29 31 32 33 33 33 34 37 38 38 37 34 31 28 25 24 25 27 28 30 31 31 32 34 34 35 36 36 33 29 25 24 22 21 21 21 20 22 25 25 25 24 23 21 22 24 24 23 23 22 21 22 23 24 24 26 26 26
9 8 7 8 10 11 12 12 12 12 13 14 15 15 15 16 18 20 21 22 22 23 23 25 25 26 27 28 30 31 32 32 31 32 35 37 37 37 35 32 29 27 26 25 25 27 30 32 33 35 36 36 37 38 38 35 32 29 27 25 24 24 23 22 23 25 24 24 26 24 22 23 25 27 28 28 27 26 27 29 29 27 28 30 29
10 7 6 5 6 7 9 10 9 10 10 11 12 13 13 14 15 17 19 21 22 22 22 23 24 24 25 27 28 29 30 30 29 30 33 36 37 37 35 33 31 31 30 29 28 28 30 31 31 34 36 37 38 38 39 39 38 35 32 30 28 27 25 24 24 24 23 23 26 25 23 24 25 27 29 30 29 28 29 32 32 29 29 32 33
15 12 10 7 5 5 6 7 8 8 8 9 10 11 12 13 13 14 15 17 20 21 21 21 22 23 23 25 27 28 29 29 28 28 29 31 34 35 34 32 32 32 31 30 30 31 33 32 33 34 36 38 39 39 39 40 40 39 37 34 31 29 27 25 25 24 22 23 25 24 23 24 25 26 29 30 29 28 29 32 31 28 29 32 31
17 18 16 14 11 8 6 6 7 7 8 9 9 10 11 12 12 12 13 14 16 19 20 19 20 20 21 22 24 26 28 27 25 26 26 27 29 31 32 31 29 29 30 30 31 34 35 35 36 36 36 36 37 37 37 37 38 39 39 38 35 33 31 29 28 25 22 22 23 24 24 24 24 24 26 27 27 27 29 32 32 30 31 33 30
15 15 15 16 14 12 10 8 7 7 7 8 9 10 9 10 11 12 12 12 13 16 18 18 18 18 19 20 21 22 22 21 22 25 26 25 26 28 30 30 29 28 28 30 32 33 33 33 33 33 33 33 32 32 33 34 35 36 37 38 37 35 33 32 30 27 24 24 23 22 22 23 23 24 25 25 26 28 29 30 32 32 33 34 30
13 13 13 14 13 12 12 11 10 9 8 8 9 10 10 10 11 11 11 11 12 14 15 16 16 16 17 19 20 20 19 19 21 25 26 25 25 26 28 30 31 29 29 31 32 31 30 29 30 30 31 30 30 30 30 31 32 32 33 34 35 34 32 30 28 27 26 26 25 22 22 22 22 23 24 25 26 28 29 29 30 31 32 31 29
12 12 12 12 11 11 12 12 12 10 10 9 9 10 11 12 12 11 11 11 12 14 15 15 16 16 16 17 20 21 20 19 21 23 24 24 25 26 26 28 30 31 31 31 31 29 28 27 28 29 29 29 29 29 30 30 30 30 30 31 31 32 31 28 26 25 24 24 23 22 21 21 22 23 25 26 26 26 26 27 27 27 28 28 27
10 11 11 9 8 9 11 12 11 9 8 9 9 10 11 12 12 10 10 10 12 14 15 15 15 15 15 16 19 20 19 19 21 22 22 23 25 25 26 27 29 31 32 32 29 27 26 27 27 28 28 28 28 28 29 29 30 30 30 29 28 28 29 28 27 27 26 23 20 19 18 19 21 22 23 25 26 26 26 26 26 25 24 23 23
8 10 9 7 5 6 9 10 8 7 7 9 9 10 10 11 11 9 8 9 11 13 14 14 13 15 15 16 18 20 19 19 20 21 21 22 24 25 26 27 29 30 31 30 27 25 25 26 26 27 27 27 27 27 28 28 29 29 28 28 27 26 25 27 28 28 27 26 25 22 20 18 18 19 19 20 22 23 23 24 25 25 24 22 21
8 9 8 7 4 3 5 7 5 5 7 9 10 10 9 9 9 8 7 7 9 11 13 13 12 13 14 15 17 19 19 19 19 20 20 21 23 24 26 27 28 28 28 27 25 24 24 25 26 27 27 27 27 27 27 27 28 28 27 27 27 26 25 25 26 26 25 26 26 25 24 23 21 19 19 19 21 21 20 21 22 22 22 22 20
10 8 7 7 6 3 4 5 3 3 5 7 9 9 8 7 8 8 7 6 7 9 11 12 12 12 13 14 15 17 19 19 19 19 19 20 22 25 25 24 23 22 23 24 23 22 22 24 25 25 26 26 26 26 27 27 26 26 26 25 25 25 25 25 24 24 24 24 23 23 23 23 22 21 20 20 19 19 20 21 23 23 23 22 21
9 7 5 6 7 5 4 3 2 3 5 7 8 8 8 6 6 7 7 6 6 7 10 11 13 13 12 12 13 15 17 18 18 19 19 19 21 23 22 21 20 20 20 20 21 20 21 22 23 23 24 24 24 24 25 25 25 25 25 24 24 23 23 23 23 23 24 24 23 21 21 20 20 19 18 17 16 17 19 21 23 24 23 23 22
7 5 3 4 7 5 4 3 3 5 6 7 8 9 9 6 4 5 6 6 5 5 8 10 12 12 11 10 11 14 17 17 18 19 19 18 19 21 20 19 19 19 18 18 18 19 19 19 20 21 22 22 22 22 23 23 24 24 24 24 24 22 21 21 21 21 21 21 21 20 19 18 18 17 17 16 16 17 19 21 23 23 23 22 22
3 5 4 3 4 4 4 3 4 6 8 9 9 9 9 6 3 3 5 5 4 4 6 8 10 11 10 9 9 13 16 17 17 17 18 17 17 18 19 18 18 19 19 17 16 17 17 18 19 20 20 19 19 19 20 20 21 22 22 22 23 23 22 21 20 19 19 18 17 17 17 17 16 16 17 17 16 17 18 19 20 21 20 20 21
2 5 5 2 3 5 4 2 3 7 9 10 10 10 7 4 2 2 3 4 4 3 4 7 9 9 9 8 8 11 15 15 14 14 15 15 15 16 17 16 16 17 18 17 15 15 15 16 17 18 18 18 17 16 17 18 18 20 20 20 21 22 22 22 21 20 19 17 15 14 15 15 14 15 16 16 15 14 15 15 15 17 19 19 20
3 5 5 4 5 5 3 2 3 6 9 9 10 11 7 4 4 2 2 2 3 3 4 6 7 8 8 8 7 9 12 13 13 12 13 13 13 14 15 14 14 15 16 15 14 14 14 14 15 16 17 17 16 15 15 16 16 17 18 18 18 19 20 21 21 20 18 17 15 14 13 13 13 13 14 14 13 13 12 12 12 15 19 20 20
3 5 6 7 6 4 4 5 5 7 9 10 11 11 7 3 4 3 2 2 3 2 2 4 5 7 8 8 7 8 10 11 12 11 12 12 11 12 13 13 14 15 15 13 13 14 14 13 13 14 15 16 16 15 14 14 13 14 15 16 17 17 18 19 20 18 16 15 14 14 13 13 12 12 11 11 12 12 12 11 11 14 17 19 19
3 5 6 7 7 6 6 7 8 7 8 9 11 11 9 4 3 3 3 3 3 2 1 2 4 5 7 7 7 7 8 9 10 10 10 10 10 11 11 11 11 12 13 12 12 12 12 11 12 13 14 14 14 14 13 12 12 12 12 13 14 15 16 17 17 17 15 13 11 11 12 11 11 11 11 11 12 11 11 11 12 13 15 16 17
3 4 4 5 6 6 6 7 8 8 8 8 10 11 11 7 4 4 4 4 4 2 0 1 2 4 5 6 7 7 7 7 8 9 9 9 9 9 10 10 10 10 11 11 11 11 10 9 10 11 12 11 11 12 12 11 10 11 11 12 12 13 13 14 15 15 14 11 9 9 10 9 9 9 10 11 12 12 11 12 13 13 13 13 14
4 5 4 3 3 4 5 5 6 7 6 6 7 9 11 9 6 3 3 3 3 1 0 1 2 4 4 5 6 7 8 7 7 7 8 8 8 8 9 9 9 9 10 10 10 11 10 9 9 11 11 10 9 10 10 10 10 9 10 11 11 11 11 11 11 12 12 11 8 8 8 6 6 8 9 9 10 11 11 11 11 11 11 11 12
5 5 4 3 2 3 5 4 4 4 4 4 5 8 10 9 6 4 2 1 1 0 1 1 2 3 4 5 5 6 7 7 6 7 7 6 7 8 8 9 9 9 9 9 10 11 11 11 11 11 11 11 9 9 9 10 10 8 8 9 10 10 10 9 7 8 10 10 9 8 7 5 5 6 7 7 7 8 9 9 9 9 10 10 10
5 5 5 4 4 3 4 4 3 4 5 3 4 5 7 8 8 7 6 4 2 1 2 1 1 2 4 5 4 5 6 7 7 6 6 6 6 7 7 8 9 8 7 9 9 10 11 12 12 11 10 11 10 9 9 11 10 9 8 8 7 7 8 7 6 5 7 8 9 8 8 6 6 6 6 5 5 5 6 6 6 6 7 9 10
5 5 7 8 6 5 6 6 5 5 5 3 2 3 5 5 6 7 7 6 6 4 2 1 1 2 3 4 4 3 4 5 6 6 5 5 6 6 6 7 8 8 8 9 9 8 9 11 12 11 11 10 10 10 10 11 11 10 10 9 7 6 6 5 4 3 4 5 7 7 7 6 6 6 6 6 5 5 5 5 5 4 4 5 6
5 5 8 11 9 6 6 7 7 7 5 3 2 3 4 4 4 5 5 4 4 5 5 4 3 2 3 5 4 3 3 4 6 7 6 5 5 5 5 6 7 9 9 9 8 8 8 8 9 10 12 11 10 10 10 11 11 12 11 9 7 5 4 3 2 2 2 3 3 4 5 6 6 6 6 5 5 5 5 6 5 4 3 2 2
5 3 6 10 10 7 5 6 7 8 7 5 3 3 4 4 4 4 4 4 3 4 5 5 4 3 4 6 5 3 2 4 6 6 6 6 5 4 5 5 6 8 9 8 8 8 7 7 7 8 10 10 10 9 10 11 12 12 11 10 8 6 4 3 1 1 1 2 2 2 3 4 4 4 4 4 3 3 3 4 4 4 3 2 2
7 5 5 8 10 9 6 5 7 9 10 7 4 3 5 5 5 5 5 4 3 3 3 3 4 4 5 6 5 2 2 4 6 6 6 6 5 5 5 6 6 6 8 9 9 7 6 6 6 7 9 9 9 9 9 11 11 11 10 9 9 7 5 3 2 0 1 0 2 2 1 1 1 1 1 2 2 2 2 2 2 2 3 3 2
Wind_Direction
77 73 67 63 61 61 59 56 54 51 49 48 43 36 32 28 23 21 20 18 14 10 11 10 7 8 12 16 20 15 8 6 2 359 357 354 351 345 338 330 317 303 290 282 278 274 269 264 264 263 259 256 255 252 250 247 242 235 230 228 227 226 225 225 234 247 242 239 231 222 217 209 205 209 210 210 215 217 216 217 216 215 214 212 210
74 72 70 66 62 59 57 55 52 49 47 45 42 37 35 32 29 26 24 21 17 14 13 11 8 9 11 15 21 12 1 1 359 355 352 346 342 340 338 336 332 323 309 292 281 276 271 265 263 264 261 257 254 251 250 248 243 236 231 227 225 225 224 222 228 237 241 236 224 218 216 208 204 208 209 209 212 214 212 213 214 214 213 211 210
72 72 70 67 62 58 55 53 51 48 44 41 39 37 35 33 31 29 27 23 19 17 15 12 11 13 13 16 22 13 1 0 357 352 349 343 337 333 330 329 328 325 320 309 295 284 275 268 265 265 260 255 253 250 249 249 245 239 235 231 228 227 225 222 224 228 234 232 217 211 211 206 205 209 210 211 212 211 209 209 211 212 211 211 210
71 69 68 66 63 59 55 54 53 49 45 42 41 38 34 33 31 30 28 26 23 19 17 15 14 15 14 16 21 15 3 1 360 355 351 345 339 334 329 325 322 317 312 310 305 294 282 272 269 267 261 254 252 251 249 248 245 240 237 234 232 231 228 224 223 225 228 225 212 213 213 207 206 209 209 208 209 207 205 205 207 208 209 210 211
70 69 67 65 62 59 55 54 54 52 49 46 44 42 39 35 32 30 27 26 25 21 18 17 16 16 14 12 15 12 2 1 4 0 356 351 345 340 334 328 322 316 308 302 299 296 291 282 274 269 264 257 254 253 251 249 246 243 239 234 231 230 228 224 221 221 222 216 206 213 217 211 208 209 208 205 201 199 199 201 203 204 206 209 210
71 69 66 62 59 56 52 51 53 53 51 47 44 43 41 38 34 30 28 27 25 22 20 20 17 14 12 10 10 7 359 359 3 360 356 353 348 344 340 335 329 322 313 305 297 290 288 287 281 275 268 261 257 256 254 250 246 241 238 236 232 228 226 226 223 219 217 215 206 204 209 211 209 207 208 208 199 190 190 198 203 203 202 203 206
71 68 65 59 55 52 50 49 50 50 49 48 45 43 43 39 34 31 31 30 26 21 20 20 18 15 13 9 9 8 2 359 359 358 356 354 349 345 342 339 335 329 321 314 305 296 286 281 280 278 274 267 261 260 257 252 247 242 240 238 235 231 228 225 221 216 212 211 208 205 205 207 208 208 207 207 200 189 187 191 196 200 202 204 206
67 65 64 60 53 49 49 50 49 48 48 47 45 45 46 42 37 35 37 35 28 22 21 21 20 19 16 12 10 9 6 2 359 358 357 354 349 345 343 341 338 333 328 321 314 306 296 284 275 274 274 270 265 261 258 254 248 245 246 242 235 233 229 220 213 210 207 205 204 204 203 201 205 207 199 192 191 191 192 192 193 198 202 205 206
64 62 61 59 52 48 48 49 49 47 47 46 44 45 47 44 40 39 39 36 30 25 23 24 23 21 17 15 14 12 8 3 359 359 358 355 350 347 345 345 344 339 334 330 324 316 308 295 281 273 272 270 266 263 261 259 253 248 249 247 237 232 227 217 210 208 205 203 201 200 199 198 201 201 188 183 192 199 197 195 198 202 201 201 205
64 63 61 57 53 51 49 48 47 46 48 47 43 44 47 45 42 41 39 36 33 29 29 29 28 24 19 16 14 13 8 3 1 2 4 1 356 351 348 350 351 345 338 334 330 325 318 306 289 276 271 271 270 267 263 262 259 254 251 248 240 232 225 214 208 207 205 202 198 196 197 198 200 200 193 192 199 201 194 193 200 200 193 194 204
64 63 61 58 55 54 51 48 46 47 49 48 44 45 47 45 43 41 39 37 35 34 33 31 29 25 23 20 15 12 7 3 3 7 9 8 4 359 357 355 352 345 339 335 331 328 323 316 304 288 277 274 274 273 269 264 261 258 256 251 244 238 231 217 206 203 204 203 201 200 199 199 200 202 202 200 200 198 193 193 196 191 183 187 198
66 64 62 60 58 55 51 49 48 48 49 48 46 47 48 46 43 41 38 34 32 32 31 29 27 24 22 20 16 13 7 4 6 10 10 11 10 8 6 1 352 346 343 338 333 329 324 319 311 299 287 281 277 275 273 269 264 261 259 257 252 245 240 233 219 207 203 203 205 205 204 202 200 201 205 205 202 198 195 195 196 190 185 189 195
70 67 64 63 61 57 52 50 51 51 51 50 49 50 49 46 43 41 37 31 29 28 27 26 24 21 20 18 15 13 8 6 9 11 10 12 12 10 9 6 358 352 349 343 337 334 329 322 315 305 296 290 284 279 274 271 269 266 263 261 257 250 245 242 237 227 217 210 209 210 208 205 202 203 206 207 202 197 193 194 196 195 193 196 199
72 68 66 64 63 58 53 53 54 53 53 51 50 50 49 47 45 43 38 31 26 24 23 23 23 20 18 16 14 13 11 9 10 10 9 10 12 10 9 8 4 359 356 351 344 340 335 329 321 312 302 295 287 281 277 271 268 268 266 263 258 253 248 244 241 238 230 220 215 215 213 210 210 209 209 208 204 198 195 195 197 197 198 200 200
72 69 67 67 65 59 56 57 57 55 54 52 50 50 48 45 43 41 37 33 28 23 22 22 22 20 18 16 14 13 12 11 11 11 8 8 11 10 8 8 6 3 1 358 351 347 344 338 329 321 312 301 288 278 275 274 269 264 263 260 257 254 250 246 243 239 234 227 221 219 218 217 217 215 211 209 206 204 202 201 200 196 193 189 188
74 72 70 70 68 61 58 59 59 56 54 52 50 49 47 45 43 41 39 38 34 29 24 22 20 18 16 15 13 11 12 12 12 12 10 8 9 9 7 6 6 5 4 1 354 352 351 345 336 329 320 308 294 280 271 271 269 262 257 256 255 252 250 250 246 240 234 231 227 225 224 223 221 218 216 214 210 206 204 201 196 188 180 173 169
77 76 75 73 70 63 60 61 61 59 55 53 51 49 48 47 46 46 45 43 39 32 26 22 18 16 14 13 11 9 10 12 13 13 12 9 8 9 6 3 4 5 4 2 357 354 355 352 343 336 328 316 303 287 270 264 266 262 254 251 252 250 248 248 245 240 235 232 228 225 223 224 223 220 220 218 211 203 195 189 186 181 177 176 168
78 78 78 76 72 66 61 61 63 62 59 55 53 51 51 50 48 48 46 42 37 32 26 23 22 18 15 13 11 10 10 12 13 14 13 11 10 9 6 3 3 3 1 360 359 358 359 360 354 346 339 327 310 292 270 258 258 258 252 247 246 244 242 240 236 232 229 226 223 220 219 223 227 224 223 222 215 205 197 190 184 179 180 186 177
82 82 81 78 75 70 63 61 64 66 63 60 58 55 53 52 49 46 43 39 35 31 28 26 25 23 20 16 14 13 11 12 14 15 15 14 11 11 9 4 1 0 359 358 1 2 2 3 0 356 354 346 327 305 274 253 251 253 249 240 234 233 234 232 226 221 215 211 212 214 215 217 219 219 218 218 215 209 203 197 188 181 182 186 174
87 86 82 78 77 74 68 63 64 66 66 65 64 61 57 54 51 47 44 41 38 35 32 29 27 25 24 21 19 17 14 13 15 16 16 15 13 11 11 8 2 359 358 359 2 2 3 6 5 2 7 10 2 343 302 262 256 253 243 230 225 227 225 216 210 206 198 191 192 196 196 195 197 200 201 203 205 205 204 202 197 190 185 180 176
91 87 79 75 76 76 70 66 66 66 67 67 65 64 60 56 53 50 47 44 41 38 35 31 28 26 24 22 20 19 17 15 15 16 16 15 14 12 11 10 7 2 359 2 4 3 3 7 8 7 13 24 29 30 27 340 271 249 234 225 223 220 207 188 181 180 174 166 163 164 167 169 171 174 177 181 189 195 198 201 202 197 190 184 180
95 87 78 74 76 75 71 68 68 67 67 66 65 64 61 57 54 52 48 45 42 38 34 31 27 24 24 23 20 18 17 16 15 15 14 14 14 13 10 10 10 8 5 5 7 7 7 10 12 13 18 29 39 46 53 58 62 73 141 183 187 182 172 159 152 147 143 140 137 134 138 144 147 151 157 160 165 177 188 195 198 196 194 191 187
94 86 81 77 78 78 76 72 70 68 65 63 63 62 59 56 53 50 47 44 40 37 33 30 26 22 20 20 20 18 16 15 14 14 14 13 14 13 10 8 9 12 13 10 8 10 12 15 20 22 24 31 39 48 56 62 62 63 74 95 114 125 126 123 121 118 113 113 114 111 113 120 124 130 140 145 144 148 163 177 185 189 190 189 187
95 87 86 85 83 83 81 75 70 68 64 60 59 58 56 53 50 47 44 42 38 35 32 29 25 21 17 15 17 17 16 15 14 14 14 14 14 13 12 10 9 12 18 18 15 16 18 22 27 31 32 33 38 46 54 60 62 63 70 79 91 104 108 106 107 106 99 93 93 92 95 104 111 115 121 130 135 136 138 143 155 167 172 173 173
101 94 90 90 87 83 81 76 70 68 64 58 56 54 52 50 47 44 41 38 36 33 31 29 26 22 18 14 14 16 16 14 15 15 14 14 15 14 14 14 14 14 19 22 23 24 28 31 34 38 39 38 39 43 46 52 60 65 69 72 75 82 91 95 100 100 95 89 87 87 90 97 105 110 114 121 127 131 133 131 133 139 145 147 147
114 110 100 94 87 80 77 73 68 65 62 57 53 50 48 46 44 41 38 36 33 30 28 27 25 23 20 16 13 14 14 13 15 18 16 15 16 15 15 17 20 23 24 26 27 29 33 36 38 40 41 42 44 44 42 46 55 62 66 67 67 70 75 80 84 88 89 91 92 92 92 97 104 109 113 115 117 119 124 127 125 125 129 131 126
111 117 110 97 85 75 70 67 61 58 55 52 49 46 42 40 38 38 36 33 31 28 25 24 23 21 18 15 13 15 14 13 16 20 18 17 17 16 16 19 22 25 27 27 28 31 34 37 38 40 42 44 47 48 45 44 48 53 57 60 62 65 70 73 77 81 84 89 93 94 96 100 103 104 107 108 107 109 116 121 118 114 118 122 115
92 96 96 91 83 72 60 54 48 44 40 37 38 38 36 33 31 32 32 30 28 26 24 22 21 20 18 14 12 13 13 13 17 20 19 19 20 19 19 20 22 25 25 25 29 35 39 40 39 39 40 41 42 43 42 41 43 45 50 55 59 63 69 73 74 76 79 85 89 91 94 96 95 96 98 99 99 101 106 110 109 107 110 111 106
88 89 88 84 82 81 72 59 46 37 32 28 28 30 29 26 26 28 29 28 28 26 24 23 23 24 24 19 14 11 12 15 21 23 20 21 23 23 23 23 24 27 29 31 35 38 39 39 37 36 35 35 35 35 35 37 39 40 43 47 51 56 60 63 65 67 73 79 84 85 87 88 89 91 93 92 94 98 100 101 101 101 101 100 95
85 88 87 82 78 77 78 79 68 50 39 31 29 33 34 27 25 30 31 29 28 27 24 23 24 26 28 28 24 19 17 20 25 25 23 23 24 25 26 26 27 29 32 36 39 38 36 35 34 33 33 33 33 32 32 35 37 38 40 43 45 47 50 53 57 64 69 74 78 83 87 88 87 89 91 90 92 95 97 99 100 99 96 95 92
81 86 91 86 77 69 70 79 82 71 57 46 43 49 52 45 39 42 43 40 39 36 32 30 30 30 29 29 28 26 25 27 27 25 25 27 26 26 27 28 29 30 34 38 38 35 33 33 32 32 34 34 33 32 34 36 37 38 39 42 44 45 46 47 50 56 62 65 69 77 87 93 93 94 96 96 95 95 95 97 99 98 97 97 97
85 86 93 93 82 68 66 75 83 79 66 59 60 62 60 53 49 49 51 51 51 47 42 38 37 35 32 29 28 27 26 29 28 25 26 29 29 28 29 30 30 30 33 38 38 33 32 34 33 32 33 34 33 34 36 37 38 39 40 40 41 44 49 51 53 57 59 59 59 64 77 91 98 99 101 102 103 103 103 102 102 100 99 100 101
95 92 95 95 85 72 68 75 87 87 70 60 64 67 60 51 47 46 47 50 50 46 43 40 37 34 31 30 30 30 28 28 28 26 27 29 31 32 34 34 33 30 32 36 37 34 34 36 35 33 33 32 31 34 36 38 39 41 43 42 40 43 49 56 60 62 63 64 62 62 70 87 100 103 105 107 110 111 111 112 113 113 112 110 109
105 100 91 82 81 79 72 75 89 93 71 59 63 70 63 48 40 37 38 43 44 42 43 43 37 31 29 29 30 32 31 29 29 28 28 30 32 34 36 37 36 34 34 36 38 37 36 35 33 32 32 32 33 35 36 38 40 42 44 45 46 46 49 54 56 58 61 64 65 65 69 81 95 104 108 111 113 114 115 116 119 121 121 118 116
113 109 90 75 78 88 76 77 87 83 67 61 64 68 61 44 36 31 27 33 37 37 41 46 40 31 28 28 28 30 32 32 32 31 30 31 32 33 35 36 36 36 36 38 40 40 38 35 33 33 35 37 38 40 40 41 42 42 42 44 47 49 50 52 53 54 57 59 60 62 66 72 81 93 103 107 111 114 116 117 119 122 124 125 126
119 116 96 75 64 62 81 88 79 55 54 58 61 60 53 44 42 36 22 21 30 32 37 44 43 35 30 29 28 29 31 33 34 34 34 33 32 33 35 36 36 37 38 38 39 40 39 35 34 35 36 39 42 43 43 43 43 43 44 45 48 50 51 52 53 54 56 58 58 59 63 67 73 82 93 101 108 115 119 121 122 124 127 130 131
117 116 107 71 44 49 99 104 49 26 37 40 40 40 35 36 49 43 24 14 23 32 34 37 39 35 31 31 29 27 29 33 35 36 37 37 36 36 38 38 36 37 38 38 37 38 38 35 34 34 35 38 40 42 43 42 42 44 47 49 50 51 52 52 53 54 56 58 59 60 63 67 70 76 87 101 116 126 130 129 128 128 130 131 132
103 89 86 44 33 57 122 115 41 36 37 32 30 28 24 26 50 48 28 16 20 31 31 32 35 34 31 31 29 25 25 29 33 37 38 39 39 38 38 39 39 38 37 38 38 39 40 39 36 34 33 32 34 36 37 39 42 45 49 51 51 52 52 52 52 51 51 53 56 60 65 69 72 75 82 95 114 129 133 132 130 129 130 131 131
71 42 20 356 31 92 140 130 55 37 21 12 9 9 15 27 51 44 29 25 28 35 34 33 32 31 29 28 26 25 25 26 31 36 38 38 40 39 37 37 40 39 35 36 40 40 39 36 32 30 30 30 30 31 32 35 40 43 46 48 49 48 48 49 49 49 48 48 50 53 56 64 71 75 77 82 95 115 126 129 130 130 130 129 128
33 27 20 22 124 134 143 130 58 27 12 6 5 8 20 52 80 46 35 40 40 41 41 37 32 28 27 25 22 23 26 27 29 35 37 36 37 39 35 35 40 40 34 32 35 36 33 30 31 33 34 33 31 31 33 37 39 39 40 42 43 42 43 43 44 46 47 48 51 52 53 59 67 71 72 74 81 98 114 120 124 126 127 128 129
43 45 56 91 134 145 134 96 47 29 29 33 31 29 42 93 116 92 69 57 43 39 43 45 39 29 23 20 19 20 25 26 26 30 34 35 35 36 35 34 37 37 30 24 26 29 28 28 32 38 39 38 37 36 36 36 35 34 37 41 40 39 39 40 39 41 44 47 53 61 65 67 71 72 75 78 80 87 99 108 119 128 130 131 133
76 75 77 89 110 119 89 67 63 61 59 56 45 36 39 83 126 119 102 68 38 27 35 45 44 33 21 15 15 17 20 23 24 24 28 32 33 34 36 37 36 35 29 22 23 29 29 28 31 35 37 37 37 36 34 32 30 32 37 39 37 36 38 39 38 38 38 40 47 56 62 67 70 71 75 84 89 93 99 106 124 140 141 139 138
108 91 84 84 91 100 86 62 60 70 70 58 48 41 41 63 140 145 106 67 39 19 31 49 44 35 22 11 12 17 17 20 22 20 20 26 32 35 37 38 36 35 33 30 29 29 26 25 29 31 30 29 30 32 35 36 34 32 31 29 27 29 33 35 35 34 33 35 42 50 55 62 67 68 74 85 94 102 109 113 122 136 145 147 146
136 121 118 102 91 98 93 67 64 79 79 60 48 44 47 65 130 152 107 72 49 30 80 72 39 34 21 5 5 13 13 13 19 18 14 17 25 31 34 34 31 28 28 27 24 20 17 19 23 23 21 20 21 25 33 39 39 36 32 26 22 23 28 32 31 30 29 32 39 46 52 63 72 76 82 89 94 100 111 117 118 122 135 149 153
158 154 157 147 112 111 110 88 81 89 81 58 50 51 54 67 99 122 91 67 53 40 76 51 30 26 12 357 1 9 7 4 10 14 10 9 15 22 28 30 28 25 22 18 13 11 12 15 17 17 17 16 15 17 25 33 37 36 32 28 27 28 31 32 27 26 31 40 47 46 44 54 78 89 90 90 90 91 98 106 111 114 121 134 147
186 193 192 186 167 139 126 111 105 112 98 70 66 68 66 67 75 76 60 47 30 311 295 354 25 23 4 351 354 4 6 2 1 5 7 4 5 12 19 21 20 19 16 9 5 7 12 14 15 17 19 20 19 21 26 29 31 28 24 24 26 28 30 31 27 28 38 49 60 62 57 60 81 91 87 84 86 89 91 93 99 108 116 122 129
222 231 219 201 187 162 147 144 150 150 139 115 91 87 80 74 75 77 73 58 31 328 293 317 13 24 9 357 350 355 3 2 358 359 2 359 359 6 14 17 17 14 7 0 359 4 13 18 19 20 21 22 25 30 31 28 26 20 12 8 6 6 11 19 27 35 40 47 59 71 78 82 85 83 77 75 79 83 83 81 81 92 108 117 119
241 245 231 222 214 194 177 175 175 169 160 146 122 115 104 88 83 84 77 56 38 31 31 25 6 5 4 356 344 340 350 355 353 350 349 352 357 3 9 14 16 13 6 1 360 3 12 19 22 24 25 27 29 32 29 22 16 9 2 354 345 342 351 4 19 37 42 43 51 63 74 84 89 86 84 86 87 83 81 81 79 79 87 98 108
241 243 230 226 224 211 192 190 192 192 195 204 194 159 140 118 103 103 97 76 57 60 73 90 96 63 22 0 344 330 334 345 347 345 340 341 351 359 1 7 14 13 8 4 4 5 8 10 15 22 28 30 30 29 26 17 10 7 7 3 358 357 10 29 44 57 48 37 43 57 64 71 81 86 86 87 87 85 82 81 82 86 80 59 86
223 210 209 215 218 216 208 203 205 210 219 224 210 179 169 160 146 138 139 128 100 88 91 94 88 53 16 1 351 338 336 346 347 344 340 336 336 341 343 349 1 7 5 358 355 2 6 1 359 10 20 22 19 15 15 14 11 10 13 16 16 20 33 47 61 86 72 52 52 62 60 63 76 86 85 81 76 70 68 67 73 92 102 85 78
211 216 230 230 226 227 232 230 222 223 227 227 220 200 193 189 178 169 170 166 143 118 100 61 29 9 2 4 5 359 346 351 348 341 338 334 328 328 336 341 345 353 354 348 343 347 357 358 352 355 5 12 12 5 1 2 3 4 9 16 20 23 26 24 12 317 221 46 52 57 56 57 80 84 72 61 38 11 0 4 19 73 110 105 95